Weather in Staryye Kazanchi

Russia / Republic of Bashkortostan     56°12′21″N   56°13′20″E
temp.,
°C
wind,
m/s
gust,
m/s
humid.,
%
clouds,
%
prec.,
mm/h
press.,
hPa
HPBL,
m
28 february, sun
sun2823:00−13e6119298 0.9 1004318
02:00−13e5109398 0.3 1003316
05:00−13e5109398 0.5 1003332
08:00−13ene5109199 0.1 1002341
11:00−11ene589299 0.3 1003415
14:00−8ene5891100 0.3 1003517
17:00−7ene5891100 0.6 1005590
20:00−10ne489398 0.1 1007294
1 march, mon
mon123:00−12ne489193 0.1 1009263
02:00−14ne489382 0.0 1011342
05:00−15ne479586 0.1 1013244
08:00−16ne3796100 0.2 1014235
11:00−14ne359190 0.3 1016405
14:00−11ne3486100 0.1 1016495
17:00−11n2388100 0.1 1017416
20:00−16n229595 0.1 101820
2 march, tue
tue223:00−19ssw0110069 0.1 101820
02:00−19sw2310066 0.0 101725
05:00−21ssw3610083 0.1 1016126
08:00−21s41098100 0.1 1014261
11:00−17s61193100 0.1 1012382
14:00−14s7128999 0.0 1009469
17:00−13s71294100 0.4 1007530
20:00−13s61394100 0.7 1006613
3 march, wed
wed323:00−12s51394100 1.1 1005552
02:00−12s51294100 0.3 1003486
05:00−12s51195100 0.8 1001427
08:00−10sse41095100 0.8 999380
11:00−7s4794100 1.3 999402
14:00−3s2494100 0.8 998429
17:00−2wnw1196100 1.8 998213
20:00−5nnw5996100 1.0 998358
4 march, thu
thu423:00−8nnw4895100 1.4 1000338
02:00−10nw4794100 0.1 1001203
05:00−11nw369699 0.1 1003172
08:00−10nw499598 0.4 1005346
11:00−11nw589299 0.6 1007358
14:00−8wnw579090 0.0 1007620
17:00−7w568995 0.1 1008689
20:00−11wsw4896100 0.2 1010183